This is the latest recevied weather packets stored in our database for station/object KG5MMT-15. If no packets are shown the sender has not sent any weather packets the latest 10 day(s).
| Time | Temp. | Humidity | Pressure | Rain* | Wind** | Luminosity | Snow |
|---|---|---|---|---|---|---|---|
| 1788558161 | 28.89° C | 25% | 0 hPa | 0 mm | - | - | - |
| 1788557862 | 28.89° C | 25% | 0 hPa | 0 mm | - | - | - |
| 1788557562 | 28.89° C | 23% | 0 hPa | 0 mm | - | - | - |
| 1788557262 | 28.89° C | 24% | 0 hPa | 0 mm | - | - | - |
| 1788556962 | 28.33° C | 24% | 0 hPa | 0 mm | - | - | - |
| 1788556662 | 28.33° C | 25% | 0 hPa | 0 mm | - | - | - |
| 1788556362 | 28.33° C | 24% | 0 hPa | 0 mm | - | - | - |
| 1788556062 | 28.33° C | 25% | 0 hPa | 0 mm | - | - | - |
| 1788555762 | 28.89° C | 24% | 0 hPa | 0 mm | - | - | - |
| 1788555462 | 28.89° C | 25% | 0 hPa | 0 mm | - | - | - |
| 1788555162 | 28.89° C | 25% | 0 hPa | 0 mm | - | - | - |
| 1788554862 | 28.33° C | 25% | 0 hPa | 0 mm | - | - | - |
| 1788554562 | 28.33° C | 25% | 0 hPa | 0 mm | - | - | - |
| 1788554262 | 28.33° C | 27% | 0 hPa | 0 mm | - | - | - |
| 1788553962 | 27.78° C | 30% | 0 hPa | 0 mm | - | - | - |
| 1788553662 | 28.33° C | 27% | 0 hPa | 0 mm | - | - | - |
| 1788553362 | 28.89° C | 28% | 0 hPa | 0 mm | - | - | - |
| 1788553063 | 28.33° C | 29% | 0 hPa | 0 mm | - | - | - |
| 1788552762 | 27.78° C | 28% | 0 hPa | 0 mm | - | - | - |
| 1788552462 | 28.33° C | 29% | 0 hPa | 0 mm | - | - | - |
| 1788552162 | 28.33° C | 28% | 0 hPa | 0 mm | - | - | - |
| 1788551862 | 27.22° C | 32% | 0 hPa | 0 mm | - | - | - |
| 1788551562 | 27.22° C | 31% | 0 hPa | 0 mm | - | - | - |
| 1788551262 | 27.22° C | 33% | 0 hPa | 0 mm | - | - | - |
| 1788550962 | 26.67° C | 34% | 0 hPa | 0 mm | - | - | - |
* Rain latest hour (hover to see other rain measurements)
** Current wind speed in m/s (hover to see current wind gust speed)